When you browse on this site, cookies collect data to enhance your experience and personalize the content and advertising you see.
Visit our Privacy Policy to learn more. By continuing to use the site, you agree to this use of cookies and data.
  • In Sweden
  • List of Countries
  • For 7 days
  • Water Temperature
  • Weather Map
  • Weather Widgets
  • user-avatar
    Login

    Hourly Weather Posihnovo

    Today, 7 December, Saturday

    Time Temperature Precipitation Wind Pressure Humidity
    00:00 0°C° 0.1 mm 5 mps 741 mmHg 89%
    01:00 0°C° 0.1 mm 5 mps 741 mmHg 89%
    02:00 0°C° 0.1 mm 5 mps 741 mmHg 90%
    03:00 0°C° 0 mm 5 mps 741 mmHg 91%
    04:00 0°C° 0 mm 4 mps 740 mmHg 92%
    05:00 0°C° 0 mm 4 mps 740 mmHg 93%
    06:00 -1°C° 0.2 mm 4 mps 740 mmHg 93%
    07:00 -1°C° 0.2 mm 4 mps 740 mmHg 94%
    08:00 -1°C° 0.2 mm 4 mps 740 mmHg 95%
    09:00 -1°C° 0.4 mm 4 mps 740 mmHg 94%
    10:00 -1°C° 0.4 mm 4 mps 739 mmHg 94%
    11:00 -1°C° 0.4 mm 4 mps 739 mmHg 93%
    12:00 -1°C° 0.4 mm 4 mps 738 mmHg 92%
    13:00 -1°C° 0.4 mm 5 mps 738 mmHg 91%
    14:00 -2°C° 0.4 mm 5 mps 737 mmHg 90%
    15:00 -2°C° 0.2 mm 5 mps 737 mmHg 90%
    16:00 -2°C° 0.2 mm 5 mps 737 mmHg 89%
    17:00 -2°C° 0.2 mm 5 mps 736 mmHg 89%
    18:00 -1°C° 0 mm 5 mps 736 mmHg 90%
    19:00 -1°C° 0 mm 5 mps 735 mmHg 91%
    20:00 -1°C° 0 mm 5 mps 735 mmHg 91%
    21:00 -1°C° 0.2 mm 6 mps 734 mmHg 92%
    22:00 +1°C° 0.2 mm 6 mps 734 mmHg 92%
    23:00 +1°C° 0.2 mm 6 mps 733 mmHg 92%

    Tomorrow, 8 December, Sunday

    Time Temperature Precipitation Wind Pressure Humidity
    00:00 +1°C° 0.4 mm 6 mps 733 mmHg 89%
    01:00 +2°C° 0.4 mm 6 mps 733 mmHg 86%
    02:00 +2°C° 0.4 mm 6 mps 733 mmHg 83%
    03:00 +1°C° 0 mm 6 mps 733 mmHg 82%
    04:00 +1°C° 0 mm 6 mps 733 mmHg 81%
    05:00 +1°C° 0 mm 6 mps 733 mmHg 80%
    06:00 +1°C° 0.2 mm 6 mps 734 mmHg 83%
    07:00 -1°C° 0.2 mm 6 mps 734 mmHg 86%
    08:00 -1°C° 0.2 mm 6 mps 735 mmHg 90%
    09:00 -1°C° 0.1 mm 6 mps 736 mmHg 86%
    10:00 +1°C° 0.1 mm 6 mps 737 mmHg 83%
    11:00 +1°C° 0.1 mm 5 mps 737 mmHg 80%
    12:00 +1°C° 0 mm 5 mps 738 mmHg 80%
    13:00 0°C° 0 mm 5 mps 738 mmHg 81%
    14:00 0°C° 0 mm 4 mps 739 mmHg 81%
    15:00 0°C° 0 mm 4 mps 739 mmHg 81%
    16:00 0°C° 0 mm 4 mps 739 mmHg 81%
    17:00 0°C° 0 mm 4 mps 739 mmHg 80%
    18:00 0°C° 0.1 mm 4 mps 739 mmHg 85%
    19:00 0°C° 0.1 mm 4 mps 739 mmHg 90%
    20:00 0°C° 0.1 mm 4 mps 739 mmHg 95%
    21:00 0°C° 0.4 mm 4 mps 738 mmHg 95%
    22:00 +1°C° 0.4 mm 5 mps 737 mmHg 94%
    23:00 +2°C° 0.4 mm 5 mps 737 mmHg 94%

    Day after tomorrow, 9 December, Monday

    Time Temperature Precipitation Wind Pressure Humidity
    00:00 +2°C° 0.1 mm 5 mps 736 mmHg 93%
    01:00 +2°C° 0.1 mm 6 mps 736 mmHg 92%
    02:00 +2°C° 0.1 mm 6 mps 736 mmHg 91%
    03:00 +2°C° 0.1 mm 6 mps 735 mmHg 90%
    04:00 +3°C° 0.1 mm 6 mps 735 mmHg 90%
    05:00 +3°C° 0.1 mm 6 mps 734 mmHg 89%
    06:00 +3°C° 0.1 mm 6 mps 734 mmHg 89%
    07:00 +3°C° 0.1 mm 6 mps 734 mmHg 88%
    08:00 +3°C° 0.1 mm 5 mps 734 mmHg 88%
    09:00 +3°C° 0.3 mm 5 mps 735 mmHg 88%
    10:00 +5°C° 0.3 mm 5 mps 735 mmHg 88%
    11:00 +5°C° 0.3 mm 4 mps 735 mmHg 88%
    12:00 +5°C° 0.2 mm 4 mps 735 mmHg 88%
    13:00 +4°C° 0.2 mm 4 mps 736 mmHg 88%
    14:00 +4°C° 0.2 mm 4 mps 736 mmHg 88%
    15:00 +4°C° 0.1 mm 4 mps 736 mmHg 89%
    16:00 +4°C° 0.1 mm 4 mps 736 mmHg 90%
    17:00 +3°C° 0.1 mm 3 mps 736 mmHg 90%
    18:00 +3°C° 0.1 mm 3 mps 737 mmHg 89%
    19:00 +3°C° 0.1 mm 4 mps 737 mmHg 88%
    20:00 +4°C° 0.1 mm 4 mps 738 mmHg 88%
    21:00 +3°C° 0 mm 4 mps 738 mmHg 89%
    22:00 +2°C° 0 mm 3 mps 738 mmHg 91%
    23:00 +2°C° 0 mm 3 mps 739 mmHg 93%

    10 December, Tuesday

    Time Temperature Precipitation Wind Pressure Humidity
    00:00 +1°C° 0 mm 3 mps 739 mmHg 94%
    01:00 +1°C° 0 mm 3 mps 739 mmHg 94%
    02:00 +1°C° 0 mm 3 mps 740 mmHg 95%
    03:00 +1°C° 0 mm 3 mps 740 mmHg 94%
    04:00 +1°C° 0 mm 3 mps 739 mmHg 94%
    05:00 +1°C° 0 mm 3 mps 739 mmHg 94%
    06:00 +1°C° 0 mm 3 mps 740 mmHg 94%
    07:00 +1°C° 0 mm 3 mps 740 mmHg 94%
    08:00 +1°C° 0 mm 3 mps 740 mmHg 95%
    09:00 +2°C° 0 mm 3 mps 740 mmHg 94%
    10:00 +2°C° 0 mm 3 mps 740 mmHg 94%
    11:00 +1°C° 0 mm 4 mps 740 mmHg 93%
    12:00 +1°C° 0.2 mm 4 mps 740 mmHg 93%
    13:00 +1°C° 0.2 mm 4 mps 740 mmHg 93%
    14:00 +1°C° 0.2 mm 4 mps 740 mmHg 94%
    15:00 +1°C° 0.1 mm 4 mps 741 mmHg 93%
    16:00 +1°C° 0.1 mm 4 mps 741 mmHg 93%
    17:00 +1°C° 0.1 mm 4 mps 741 mmHg 93%
    18:00 +1°C° 0.1 mm 4 mps 742 mmHg 94%
    19:00 0°C° 0.1 mm 4 mps 743 mmHg 94%
    20:00 0°C° 0.1 mm 5 mps 744 mmHg 95%
    21:00 -1°C° 0.3 mm 4 mps 745 mmHg 91%
    22:00 -2°C° 0.3 mm 4 mps 745 mmHg 87%
    23:00 -1°C° 0.3 mm 3 mps 746 mmHg 83%

    11 December, Wednesday

    Time Temperature Precipitation Wind Pressure Humidity
    00:00 -2°C° 0 mm 3 mps 746 mmHg 83%
    01:00 -4°C° 0 mm 3 mps 747 mmHg 82%
    02:00 -3°C° 0 mm 2 mps 748 mmHg 82%
    03:00 -3°C° 0 mm 2 mps 748 mmHg 83%
    04:00 -3°C° 0 mm 2 mps 749 mmHg 84%
    05:00 -3°C° 0 mm 2 mps 749 mmHg 85%
    06:00 -4°C° 0 mm 3 mps 750 mmHg 85%
    07:00 -4°C° 0 mm 3 mps 750 mmHg 86%
    08:00 -3°C° 0 mm 4 mps 751 mmHg 86%
    09:00 -3°C° 0 mm 4 mps 751 mmHg 82%
    10:00 -3°C° 0 mm 4 mps 752 mmHg 78%
    11:00 -3°C° 0 mm 4 mps 752 mmHg 74%
    12:00 -2°C° 0 mm 3 mps 752 mmHg 74%
    13:00 -2°C° 0 mm 3 mps 752 mmHg 75%
    14:00 -2°C° 0 mm 3 mps 753 mmHg 75%
    15:00 -2°C° 0 mm 3 mps 753 mmHg 77%
    16:00 -3°C° 0 mm 2 mps 754 mmHg 80%
    17:00 -3°C° 0 mm 2 mps 754 mmHg 83%
    18:00 -3°C° 0 mm 2 mps 754 mmHg 85%
    19:00 -1°C° 0 mm 1 mps 755 mmHg 86%
    20:00 -2°C° 0 mm 1 mps 755 mmHg 88%
    21:00 -1°C° 0 mm 1 mps 755 mmHg 88%
    22:00 -1°C° 0 mm 1 mps 755 mmHg 87%
    23:00 -1°C° 0 mm 1 mps 755 mmHg 87%

    12 December, Thursday

    Time Temperature Precipitation Wind Pressure Humidity
    00:00 -1°C° 0 mm 1 mps 755 mmHg 87%
    01:00 -1°C° 0 mm 1 mps 755 mmHg 87%
    02:00 -1°C° 0 mm 1 mps 755 mmHg 86%
    03:00 -3°C° 0 mm 2 mps 755 mmHg 85%
    04:00 -3°C° 0 mm 2 mps 755 mmHg 83%
    05:00 -3°C° 0 mm 2 mps 755 mmHg 82%
    06:00 -3°C° 0 mm 2 mps 755 mmHg 80%
    07:00 -3°C° 0 mm 2 mps 754 mmHg 79%
    08:00 -3°C° 0 mm 2 mps 754 mmHg 77%
    09:00 -4°C° 0 mm 3 mps 754 mmHg 74%
    10:00 -4°C° 0 mm 3 mps 754 mmHg 71%
    11:00 -2°C° 0 mm 3 mps 754 mmHg 68%
    12:00 -2°C° 0 mm 3 mps 754 mmHg 67%
    13:00 -2°C° 0 mm 3 mps 754 mmHg 66%
    14:00 -2°C° 0 mm 3 mps 753 mmHg 65%
    15:00 -4°C° 0 mm 3 mps 753 mmHg 67%
    16:00 -4°C° 0 mm 3 mps 753 mmHg 70%
    17:00 -4°C° 0 mm 4 mps 753 mmHg 72%
    18:00 -5°C° 0 mm 4 mps 752 mmHg 73%
    19:00 -5°C° 0 mm 4 mps 752 mmHg 73%
    20:00 -5°C° 0 mm 4 mps 752 mmHg 74%
    21:00 -5°C° 0 mm 4 mps 752 mmHg 73%
    22:00 -5°C° 0 mm 4 mps 752 mmHg 73%
    23:00 -5°C° 0 mm 4 mps 752 mmHg 73%
    Show more